カタログに戻る

OBSERVER-1A

運用中科学SSO
NORAD 58323·PAYLOAD·🇰🇷 South Korea

打ち上げ Nov 11, 2023 から Vandenberg Space Force Base

Loading…

次のパス (今後24時間)

TLE

最新Source: Space-Track

元期: Sep 14, 2026, 12:48 UTC

1 58323U 23174BV  26257.53334443  .00009772  00000-0  24392-3 0  9997
2 58323  97.3898 342.1490 0007644 182.8664 177.2540 15.40356405158953

AllMySatでOBSERVER-1Aをリアルタイム追跡

Download on the App Store